Content
SEND FEEDBACK

Daily
Averages
Monthly
Summary
United States of America

CHURCH CREEK, MARYLAND


Home > North America > United States > Maryland
Elevation: 0 feet     Latitude: 38 26N     Longitude: 076 08W

WEATHER
 
SELECT A DAY
Number of Records: 236,460;   Date Range: 8/30/06 - 8/28/14
 
SHARE

PRINT THIS DATA

[ ← Previous Day ]
WEATHER ALMANAC - JANUARY 31, 2013
[ Next Day → ]
[ °C ]   °F
Weather ElementAverageHighLow
Temperature47 °F60.8 °F (12:27 am)32 °F (11:14 pm)
Dewpoint33.7 °F59 °F (1:52 am)19.4 °F (9:49 pm)
Humidity61.8 %100 % (3:23 am)40 % (2:01 pm)
Barometer29.61 in29.94 in (11:14 pm)29.19 in (1:52 am)
Wind Speed13.1 mph25.3 mph (1:52 am)
Wind Gust42.6 mph (2:35 am)
Weather ElementAverage
Visibility9.6 mi
Wind DirectionW (268.8 °)

Weather ElementTotal
Precipitation---
Heating Degree Days18.6 (Base 65)
Averaged from 64 records on January 31, 2013
WEATHER CONDITIONS BREAKOUT
WIND DIRECTION BREAKOUT
WEATHER BY HOUR - JANUARY 31, 2013
[ °C ]   °F
Local TimeTemperatureDewpointHumidityBarometerVisibilityWind DirectionWind SpeedGust SpeedPrecipitationEventsConditions
12:27 AM60.8 °F57.2 °F88 %29.32 in10.0 miSouth (170°)21.9 mph38.0 mphScattered Clouds
12:49 AM60.8 °F57.2 °F88 %29.29 in10.0 miSouth (170°)21.9 mph31.1 mphScattered Clouds
1:10 AM60.8 °F57.2 °F88 %29.25 in10.0 miSSE (160°)23.0 mph38.0 mphScattered Clouds
1:52 AM60.8 °F59.0 °F94 %29.19 in10.0 miSSE (160°)25.3 mph39.1 mphScattered Clouds
2:14 AM60.8 °F57.2 °F88 %29.19 in7.0 miSouth (170°)21.9 mph41.4 mphScattered Clouds
2:35 AM59.0 °F57.2 °F94 %29.28 in1.5 miSW (220°)15.0 mph42.6 mphOvercast
3:02 AM57.2 °F55.4 °F94 %29.28 in4.0 miSW (230°)11.5 mph18.4 mphOvercast
3:23 AM57.2 °F57.2 °F100 %29.27 in5.0 miWSW (240°)5.8 mphOvercast
3:45 AM57.2 °F57.2 °F100 %29.25 in7.0 miWSW (240°)6.9 mphOvercast
4:06 AM57.2 °F57.2 °F100 %29.25 in10.0 miSSW (210°)10.4 mph17.3 mphMostly Cloudy
4:27 AM55.4 °F55.4 °F100 %29.24 in10.0 miSW (230°)8.1 mph16.1 mphScattered Clouds
4:49 AM55.4 °F53.6 °F94 %29.26 in10.0 miSW (220°)9.2 mph21.9 mphScattered Clouds
5:10 AM55.4 °F51.8 °F88 %29.27 in10.0 miSW (230°)17.3 mph26.5 mphOvercast
5:31 AM55.4 °F50.0 °F82 %29.29 in10.0 miWSW (240°)12.7 mph24.2 mphOvercast
5:53 AM55.4 °F50.0 °F82 %29.32 in10.0 miWSW (240°)12.7 mph26.5 mphMostly Cloudy
6:14 AM55.4 °F44.6 °F67 %29.36 in10.0 miWNW (290°)10.4 mph21.9 mphOvercast
6:56 AM50.0 °F39.2 °F66 %29.41 in10.0 miNW (310°)13.8 mph24.2 mphMostly Cloudy
7:39 AM50.0 °F37.4 °F62 %29.46 in10.0 miWNW (290°)12.7 mph19.6 mphScattered Clouds
8:00 AM50.0 °F37.4 °F62 %29.49 in10.0 miWNW (300°)13.8 mph17.3 mphMostly Cloudy
8:21 AM46.4 °F33.8 °F62 %29.51 in10.0 miNW (310°)16.1 mph24.2 mphScattered Clouds
8:42 AM46.4 °F32.0 °F57 %29.53 in10.0 miNW (310°)18.4 mph25.3 mphClear
9:04 AM46.4 °F33.8 °F62 %29.55 in10.0 miNW (320°)17.3 mph24.2 mphClear
9:25 AM44.6 °F32.0 °F61 %29.57 in10.0 miNW (310°)17.3 mph24.2 mphScattered Clouds
9:46 AM44.6 °F32.0 °F61 %29.58 in10.0 miNW (310°)15.0 mph23.0 mphClear
10:07 AM46.4 °F32.0 °F57 %29.60 in10.0 miNW (310°)15.0 mph25.3 mphClear
10:29 AM46.4 °F32.0 °F57 %29.62 in10.0 miWNW (300°)17.3 mph23.0 mphClear
10:50 AM46.4 °F32.0 °F57 %29.62 in10.0 miWNW (290°)18.4 mphClear
11:11 AM46.4 °F32.0 °F57 %29.63 in10.0 miWest (280°)16.1 mph25.3 mphClear
11:32 AM50.0 °F32.0 °F50 %29.62 in10.0 miWNW (290°)10.4 mph21.9 mphClear
11:54 AM50.0 °F32.0 °F50 %29.64 in10.0 miWest (280°)19.6 mph29.9 mphScattered Clouds
12:15 PM50.0 °F30.2 °F47 %29.64 in10.0 miWNW (290°)11.5 mph32.2 mphScattered Clouds
12:36 PM50.0 °F30.2 °F47 %29.65 in10.0 miWest (280°)17.3 mph23.0 mphScattered Clouds
12:57 PM50.0 °F28.4 °F43 %29.65 in10.0 miWest (270°)13.8 mph24.2 mphClear
1:19 PM50.0 °F30.2 °F47 %29.64 in10.0 miWest (260°)16.1 mph24.2 mphClear
1:40 PM50.0 °F30.2 °F47 %29.64 in10.0 miWest (270°)17.3 mph26.5 mphClear
2:01 PM50.0 °F26.6 °F40 %29.65 in10.0 miWNW (290°)16.1 mph31.1 mphClear
2:22 PM48.2 °F26.6 °F43 %29.67 in10.0 miWest (270°)13.8 mph28.8 mphClear
2:44 PM50.0 °F26.6 °F40 %29.67 in10.0 miWest (260°)15.0 mph24.2 mphClear
3:05 PM46.4 °F23.0 °F40 %29.69 in10.0 miWNW (290°)15.0 mph27.6 mphClear
3:26 PM48.2 °F26.6 °F43 %29.70 in10.0 miWest (280°)10.4 mph25.3 mphScattered Clouds
3:47 PM44.6 °F23.0 °F43 %29.71 in10.0 miWNW (290°)16.1 mph24.2 mphScattered Clouds
4:09 PM44.6 °F26.6 °F49 %29.73 in10.0 miWest (270°)15.0 mph19.6 mphScattered Clouds
4:30 PM44.6 °F23.0 °F43 %29.74 in10.0 miWNW (300°)9.2 mph23.0 mphScattered Clouds
4:51 PM42.8 °F26.6 °F53 %29.76 in10.0 miWNW (300°)9.2 mph20.7 mphMostly Cloudy
5:12 PM42.8 °F26.6 °F53 %29.77 in10.0 miWNW (300°)12.7 mph18.4 mphScattered Clouds
5:34 PM41.0 °F21.2 °F45 %29.79 in10.0 miWNW (290°)18.4 mph26.5 mphScattered Clouds
5:55 PM41.0 °F21.2 °F45 %29.81 in10.0 miWNW (290°)12.7 mph23.0 mphMostly Cloudy
6:16 PM41.0 °F21.2 °F45 %29.82 in10.0 miWNW (290°)10.4 mph23.0 mphScattered Clouds
6:37 PM41.0 °F23.0 °F49 %29.83 in10.0 miWNW (290°)9.2 mph17.3 mphClear
6:59 PM39.2 °F21.2 °F49 %29.85 in10.0 miWNW (300°)10.4 mph18.4 mphClear
7:20 PM41.0 °F23.0 °F49 %29.85 in10.0 miWNW (290°)9.2 mph20.7 mphScattered Clouds
7:41 PM41.0 °F23.0 °F49 %29.87 in10.0 miWest (280°)9.2 mph17.3 mphScattered Clouds
8:02 PM39.2 °F23.0 °F52 %29.87 in10.0 miWest (270°)9.2 mph17.3 mphScattered Clouds
8:24 PM37.4 °F21.2 °F52 %29.88 in10.0 miWNW (290°)10.4 mph16.1 mphScattered Clouds
8:45 PM37.4 °F21.2 °F52 %29.89 in10.0 miNW (310°)13.8 mph19.6 mphClear
9:06 PM37.4 °F23.0 °F56 %29.90 in10.0 miWNW (300°)6.9 mph19.6 mphClear
9:27 PM35.6 °F21.2 °F56 %29.91 in10.0 miNW (310°)15.0 mph24.2 mphClear
9:49 PM35.6 °F19.4 °F52 %29.90 in10.0 miNW (310°)10.4 mphClear
10:10 PM35.6 °F21.2 °F56 %29.92 in10.0 miNW (320°)6.9 mphClear
10:31 PM35.6 °F21.2 °F56 %29.92 in10.0 miNW (310°)8.1 mphClear
10:53 PM35.6 °F21.2 °F56 %29.92 in10.0 miNW (310°)5.8 mphClear
11:14 PM32.0 °F21.2 °F64 %29.94 in10.0 miWNW (290°)4.6 mphClear
11:35 PM32.0 °F19.4 °F60 %29.94 in10.0 miWNW (300°)3.5 mphClear
11:57 PM32.0 °F21.2 °F64 %29.94 in10.0 miCalmClear
Hourly data recorded from KCGE, located miles away from Church Creek, Maryland







STORIES FROM OUR PARTNERS